Regional Weather Roundup
Issued by NWS

Home | Current Version | Previous Version | Graphics & Text | Print | Product List | Glossary On
Versions: 1 2 3 4 5 6 7 8 9 10 11 12 13 14 15 16 17 18 19 20 21 22 23 24 25 26 27 28 29 30 31 32 33 34 35 36 37 38 39 40 41 42 43 44 45 46 47 48 49 50
000
ASUS43 KDTX 202101
RWRMI
MICHIGAN HOURLY REGIONAL WEATHER ROUNDUP
NATIONAL WEATHER SERVICE DETROIT/PONTIAC MI
500 PM EDT MON OCT 20 2014

NOTE: "FAIR" INDICATES FEW OR NO CLOUDS BELOW 12,000 FEET WITH NO
SIGNIFICANT WEATHER AND/OR OBSTRUCTION TO VISIBILITY.

MIZ047>049-052>055-059>063-066>070-074>076-081>083-202200-
SOUTHEAST LOWER MICHIGAN

CITY           SKY/WX    TMP DP  RH WIND       PRES   REMARKS
ADRIAN         CLOUDY    53  50  89 W3        29.82S
ALMA           CLOUDY    58  47  67 NW9       29.79R
ANN ARBOR      CLOUDY    55  47  74 W10       29.80R
BAD AXE        CLOUDY    52  49  90 W5        29.79R
CARO           CLOUDY    55  49  79 W5        29.79R
DETROIT CITY   CLOUDY    59  47  64 W8        29.79R
DETROIT        CLOUDY    56  48  74 SW10      29.80R
FLINT          CLOUDY    58  48  69 SW5       29.79R
GROSSE ILE     CLOUDY    55  50  82 SW5       29.79S
HILLSDALE      CLOUDY    53  52  96 W3        29.82R
HOWELL         CLOUDY    56  49  77 W7        29.79S

CITY           SKY/WX    TMP DP  RH WIND       PRES   REMARKS
JACKSON        CLOUDY    54  48  80 W7        29.81R
LAMBERTVILLE   CLOUDY    54  48  82 SW5       29.82S
LANSING        CLOUDY    58  47  66 SW7       29.79S
LAPEER         CLOUDY    55  46  73 W5        29.79R
MASON          CLOUDY    57  48  72 W5        29.79S
MONROE         CLOUDY    55  48  76 SW9       29.79S
MT. CLEMENS    PTSUNNY   56  47  71 W5        29.77R
PONTIAC        CLOUDY    54  47  77 W6        29.78S
PORT HOPE        N/A     52  47  83 VRB5      29.77R
PORT HURON     CLOUDY    52  50  93 CALM      29.79S
TRI CITIES     CLOUDY    58  49  72 N7        29.80R
TROY           CLOUDY    58  47  67 W5        29.80S
SAGINAW HB     CLOUDY    57  48  72 CALM      29.78R
$$
MIZ043>046-050>051-056>058-064>065-071>073-077>080-202200-
SOUTHWEST LOWER MICHIGAN

CITY           SKY/WX    TMP DP  RH WIND       PRES   REMARKS
BATTLE CREEK   MOSUNNY   59  48  67 W10       29.81S
BENTON HARBOR  CLOUDY    53  48  83 VRB7      29.86R
BIG RAPIDS     CLOUDY    54  49  83 NW9       29.82R
COLDWATER      CLOUDY    57  51  79 W8        29.82R
FREMONT        CLOUDY    53  44  72 NW12      29.83R
HOLLAND        CLOUDY    57  49  74 NW9       29.84R
GRAND RAPIDS   CLOUDY    59  47  64 NW15      29.81R
IONIA          CLOUDY    59  48  65 N10G17    29.79R
KALAMAZOO      PTSUNNY   59  48  67 W12       29.82R
LUDINGTON      CLOUDY    49  45  84 N9G16     29.88R
MARSHALL       MOSUNNY   58  48  69 W5        29.80S
MOUNT PLEASANT CLOUDY    56  46  68 NW6       29.79R
MUSKEGON       CLOUDY    55  45  68 NW16      29.85R
SOUTH HAVEN    CLOUDY    55  50  83 NW9       29.85R
$$
MIZ016>042-202200-
NORTHERN LOWER MICHIGAN

CITY           SKY/WX    TMP DP  RH WIND       PRES   REMARKS
ALPENA         CLOUDY    49  45  86 NW6       29.79R
BEAVER ISLAND  CLOUDY    48  43  81 NW9G17    29.85R
BELLAIRE       CLOUDY    49  43  78 NW5       29.84R
CADILLAC       CLOUDY    47  43  88 NW9       29.83R
CHARLEVOIX     CLOUDY    49  44  81 N8        29.87R
FRANKFORT      CLOUDY    50  43  76 NW9G17    29.87R
GAYLORD        CLOUDY    46  42  86 VRB5      29.81R
GRAYLING       CLOUDY    49  46  90 NW9       29.82R
HARBOR SPRINGS CLOUDY    49  42  75 W7G17     29.82R
HOUGHTON LAKE  CLOUDY    48  43  82 NW13      29.82R
MANISTEE       CLOUDY    48  43  81 N9G16     29.88R
OSCODA         CLOUDY    52  49  89 CALM      29.77R
PELLSTON       CLOUDY    49  42  77 NW13      29.82R
TRAVERSE CITY  CLOUDY    49  44  83 NW10      29.84R
$$
MIZ007>008-015-202200-
EASTERN UPPER MICHIGAN

CITY           SKY/WX    TMP DP  RH WIND       PRES   REMARKS
KINROSS        CLOUDY    46  46 100 NW8       29.80R
MACKINAC ISLAN CLOUDY    48  43  81 NW8       29.81R
NEWBERRY       CLOUDY    44  41  90 NW8       29.83R
S. S. MARIE    CLOUDY    48  43  82 NW7       29.79R
$$
MIZ004>006-011>014-085-202200-
CENTRAL UPPER MICHIGAN

CITY           SKY/WX    TMP DP  RH WIND       PRES   REMARKS
MANISTIQUE     CLOUDY    46  42  87 NW14G20   29.86R
ESCANABA       CLOUDY    48  39  71 NW12      29.89R
MENOMINEE      CLOUDY    52  43  71 N7        29.89S
SAWYER-GWINN   CLOUDY    43  39  87 N14       29.90R
$$
MIZ001>003-009>011-084-202200-
WESTERN UPPER MICHIGAN

CITY           SKY/WX    TMP DP  RH WIND       PRES   REMARKS
IRON MOUNTAIN  CLOUDY    48  41  76 N12G21    29.91R
HOUGHTON       CLOUDY    44  37  76 N12       29.95R
COPPER HARBOR    N/A     45  39  79 NE23      29.94R
IRONWOOD       CLOUDY    48  43  81 N10       29.96R
$$

ABBREVIATIONS USED IN REMARKS
   TC - TEMPERATURE IN CELSIUS
  WCI - WIND CHILL INDEX
   HX - HEAT INDEX
  VSB - VISIBILITY




USA.gov is the U.S. government's official web portal to all federal, state and local government web resources and services.